Terug naar catalogus

STARLINK-36739

ActiefCommunicatieSSO
NORAD 67802·PAYLOAD·🇺🇸 United States

Gelanceerd Feb 15, 2026 vanaf Vandenberg Space Force Base

Loading…

Volgende Passages (komende 24 uur)

TLE

VersSource: CelesTrak SupGP

Epoch: Sep 15, 2026, 04:07 UTC

1 67802C 26032F   26258.17201389 -.00058212  00000+0 -18069-2 0  2583
2 67802  97.2857  84.6441 0001720  93.4164  64.0833 15.33470782    12

Volg STARLINK-36739 in realtime met AllMySat

Download on the App Store